LQTZLDZA

Guest
Details From LQTZ - TUZLA
To LDZA - Zagreb
Flight Number -
Tags generated
Created
Modified
Stats Distance 137 nm / 253 km
Max Altitude 10,300 ft / 3,139 m
Waypoints 3
Social Downloads 0
Likes 0
Share VATSIM

Download

Looking for another format? Having issues loading an existing format? Contact us
Advertisement - Login to hide

Notes

Basic altitude profile: - Ascent Rate: 2500ft/min - Ascent Speed: 250kts - Cruise Altitude: 20000ft - Cruise Speed: 460kts - Descent Rate: 1500ft/min - Descent Speed: 250kts Options: - Use NATs: yes - Use PACOTS: yes - Use low airways: yes - Use high airways: yes

Route

LQTZ NOVLO LDZA

ID Type Via Altitude Latitude Longitude Leg Dist Tot Dist Heading (true) Name
O LQTZ APT - 0 ft / 0 m 44.45867˚ 18.72483˚ - 0 nm - TUZLA
NOVLO FIX - 10,300 ft / 3,139 m 45.22944˚ 16.95306˚ 88 nm 88 nm 302° / 301° -
O LDZA APT - 0 ft / 0 m 45.74189˚ 16.06720˚ 48 nm 136 nm 310° / 309° Zagreb

Altitude Profile

Advertisement - Login to hide

LQTZ

Details ICAO LQTZ
Name TUZLA
Region Bosnia and Herzegovinia
Timezone Europe/Sarajevo (UTC+2.0)
Stats Elevation 784 ft / 239 m (AMSL)
Location 44.458666° 18.724833°
Runways 1
Magnetic Variation 4.398° E

METAR

LQTZ 211300Z 07006KT 350V130 9999 SCT040 24/11 Q1014

Decode

TAF

Not found

Departure Runways

ID Width Length Bearing (true) Bearing (mag) Surface Threshold Offset Overrun Length
09 148 ft / 45 m 8,119 ft / 2,475 m 96.01° 91.61° Asphalt 0 ft / 0 m 99 ft / 30 m
27 148 ft / 45 m 8,119 ft / 2,475 m 276.03° 271.63° Asphalt 0 ft / 0 m 110 ft / 34 m

LDZA

Details ICAO LDZA (ZAG)
Name Zagreb
Region Croatia
Timezone Europe/Zagreb (UTC+2.0)
Stats Elevation 353 ft / 108 m (AMSL)
Location 45.741890° 16.067200°
Runways 1
Magnetic Variation 4.007° E

METAR

LDZA 211300Z 08005KT 030V160 CAVOK 23/11 Q1015 NOSIG

Decode

TAF

TAF LDZA 211125Z 2112/2212 05005KT CAVOK TX24/2113Z TN13/2204Z PROB40 TEMPO 2210/2212 TSRA FEW030CB BKN040

Decode

Destination Runways

ID Width Length Bearing (true) Bearing (mag) Surface Threshold Offset Overrun Length
05 148 ft / 45 m 10,659 ft / 3,249 m 46.69° 42.68° Asphalt 0 ft / 0 m 195 ft / 59 m
23 148 ft / 45 m 10,659 ft / 3,249 m 226.71° 222.70° Asphalt 0 ft / 0 m 195 ft / 59 m

Approach Navaids

Runway Type Ident Frequency Range Bearing (true) Bearing (mag) Slope Elevation
05 Localiser IZA 109.50 MHz 25 nm / 46 km 46.79° 42.78° - 335 ft / 102 m (AMSL)
05 Glidescope IZA 109.50 MHz 25 nm / 46 km 46.79° 42.78° 3.00° 344 ft / 105 m (AMSL)
05 DME IZA 109.50 MHz 25 nm / 46 km - - - 372 ft / 113 m (AMSL)
23 Localiser IZG 109.10 MHz 25 nm / 46 km 226.81° 222.80° - 344 ft / 105 m (AMSL)
23 Glidescope IZG 109.10 MHz 25 nm / 46 km 226.81° 222.80° 3.00° 344 ft / 105 m (AMSL)

Popular Alternatives